SCP
0 0 0 0 0 0 0 0 0 0 0 0 0 0 0 0 0 0 0 0 0 0
0 0 0 0 0 0 0 0 0 0 0 0 0 0 0 0 0 0 0 0 0 0
0 0 0 0 0 0 0 0 0 0 0 0 0 0 0 0 0 0 0 0 0 0
0 0 0 0 0 0 0 0 0 0 0 0 0 0 0 0 0 0 0 0 0 0
-0 -0 0 0 0 0 0 0 0 0 0 0 0 0 0 0 0 0 0 0 0 0
0 0 0 0 0 0 0 0 0 0 0 0 0 0 0 0 0 0 0 0 0 0
0 0 0 0 0 0 0 0 0 0 0 0 0 0 0 0 0 0 0 0 0 0
0 0 0 0 0 0 0 0 0 0 0 0 0 0 0 0 0 0 0 0 0 0
0 0 0 0 0 0 0 0 0 0 0 0 0 0 0 0 0 0 0 0 0 0
0 0 0 0 0 0 0 0 0 0 0 0 0 0 0 0 0 0 0 0 0 0
0 0 0 0 0 0 0 0 0 0 0 0 0 0 0 0 0 0 0 0 0 0
0 0 0 0 0 0 0 0 0 0 0 0 0 0 0 0 0 0 0 0 0 0
0 0 0 -0 -0 -0 0 0 0 0 0 0 0 0 0 0 0 0 0 0 0 0
-0 -0 -0 0 0 -0 0 0 0 0 0 0 0 0 0 0 0 0 0 0 0 0
Wind_Speed_500mb
49 64 72 80 85 87 90 89 89 100 106 103 101 100 97 95 90 86 84 80 74 70
44 49 61 72 79 83 83 84 84 85 96 102 104 102 101 101 98 94 89 85 80 77
41 45 53 63 69 75 78 82 86 84 86 93 99 103 103 104 101 98 95 92 88 85
49 46 47 54 61 69 73 76 83 85 88 90 92 100 104 109 107 104 101 98 95 91
52 53 50 50 49 58 71 76 82 86 91 93 94 97 104 110 113 110 110 105 101 97
57 61 60 57 53 51 56 67 78 87 92 96 98 98 102 109 112 113 114 110 107 105
64 66 69 68 60 60 58 61 70 80 88 96 99 102 103 106 115 118 120 118 112 112
66 68 71 73 71 61 59 62 66 70 78 87 94 102 108 109 114 124 122 124 120 117
71 68 72 75 76 77 68 63 64 68 74 81 90 94 99 108 110 122 121 126 124 122
84 82 73 75 78 75 78 73 63 66 69 80 84 86 94 101 103 112 121 122 126 126
92 95 92 87 80 74 71 73 73 61 66 76 82 88 88 94 93 95 110 122 124 127
90 96 99 99 94 83 79 71 75 72 66 74 77 79 86 85 80 90 97 115 125 125
97 101 103 105 106 101 89 85 71 76 76 71 71 71 76 71 81 87 98 110 121 117
101 103 112 109 111 104 99 88 86 76 75 78 64 71 69 67 77 93 100 108 111 110
Wind_Direction_500mb
285 276 270 266 263 258 253 250 244 240 237 235 234 234 233 232 233 233 234 233 231 233
311 293 283 276 271 266 260 254 248 245 241 239 237 234 232 233 232 231 233 234 233 235
320 305 295 286 279 272 266 259 252 246 242 241 240 238 235 234 234 233 233 233 233 234
325 315 299 287 284 281 270 262 257 252 247 243 239 238 236 237 236 235 233 233 234 234
331 326 312 300 288 278 277 272 261 255 251 248 245 240 237 235 236 235 235 234 233 233
340 336 328 314 299 284 275 269 266 261 255 251 248 245 240 238 237 236 237 234 235 235
340 340 339 329 313 300 289 277 265 259 258 255 252 249 246 242 240 238 236 236 235 235
335 333 332 334 331 312 297 288 282 272 263 258 254 251 247 243 241 240 238 238 235 235
329 331 325 324 327 332 317 300 287 278 271 264 259 257 254 249 246 245 242 240 238 237
333 327 326 321 317 320 324 317 298 285 277 270 264 259 258 254 248 248 248 245 241 237
332 330 327 321 317 311 308 314 306 295 283 274 266 264 256 253 251 248 249 248 246 243
325 325 325 321 315 314 308 300 308 304 289 278 270 269 262 253 252 249 246 249 245 242
318 318 318 319 316 312 309 301 292 293 291 281 277 269 264 257 245 247 246 242 240 240
309 311 311 310 309 309 303 298 290 281 285 288 279 271 264 257 241 243 242 241 241 238
Wind_Speed_850mb
49 64 72 80 85 87 90 89 89 100 106 103 101 100 97 95 90 86 84 80 74 70
44 49 61 72 79 83 83 84 84 85 96 102 104 102 101 101 98 94 89 85 80 77
41 45 53 63 69 75 78 82 86 84 86 93 99 103 103 104 101 98 95 92 88 85
49 46 47 54 61 69 73 76 83 85 88 90 92 100 104 109 107 104 101 98 95 91
52 53 50 50 49 58 71 76 82 86 91 93 94 97 104 110 113 110 110 105 101 97
57 61 60 57 53 51 56 67 78 87 92 96 98 98 102 109 112 113 114 110 107 105
64 66 69 68 60 60 58 61 70 80 88 96 99 102 103 106 115 118 120 118 112 112
66 68 71 73 71 61 59 62 66 70 78 87 94 102 108 109 114 124 122 124 120 117
71 68 72 75 76 77 68 63 64 68 74 81 90 94 99 108 110 122 121 126 124 122
84 82 73 75 78 75 78 73 63 66 69 80 84 86 94 101 103 112 121 122 126 126
92 95 92 87 80 74 71 73 73 61 66 76 82 88 88 94 93 95 110 122 124 127
90 96 99 99 94 83 79 71 75 72 66 74 77 79 86 85 80 90 97 115 125 125
97 101 103 105 106 101 89 85 71 76 76 71 71 71 76 71 81 87 98 110 121 117
101 103 112 109 111 104 99 88 86 76 75 78 64 71 69 67 77 93 100 108 111 110
Wind_Direction_850mb
285 276 270 266 263 258 253 250 244 240 237 235 234 234 233 232 233 233 234 233 231 233
311 293 283 276 271 266 260 254 248 245 241 239 237 234 232 233 232 231 233 234 233 235
320 305 295 286 279 272 266 259 252 246 242 241 240 238 235 234 234 233 233 233 233 234
325 315 299 287 284 281 270 262 257 252 247 243 239 238 236 237 236 235 233 233 234 234
331 326 312 300 288 278 277 272 261 255 251 248 245 240 237 235 236 235 235 234 233 233
340 336 328 314 299 284 275 269 266 261 255 251 248 245 240 238 237 236 237 234 235 235
340 340 339 329 313 300 289 277 265 259 258 255 252 249 246 242 240 238 236 236 235 235
335 333 332 334 331 312 297 288 282 272 263 258 254 251 247 243 241 240 238 238 235 235
329 331 325 324 327 332 317 300 287 278 271 264 259 257 254 249 246 245 242 240 238 237
333 327 326 321 317 320 324 317 298 285 277 270 264 259 258 254 248 248 248 245 241 237
332 330 327 321 317 311 308 314 306 295 283 274 266 264 256 253 251 248 249 248 246 243
325 325 325 321 315 314 308 300 308 304 289 278 270 269 262 253 252 249 246 249 245 242
318 318 318 319 316 312 309 301 292 293 291 281 277 269 264 257 245 247 246 242 240 240
309 311 311 310 309 309 303 298 290 281 285 288 279 271 264 257 241 243 242 241 241 238